#timestamp,LO_Frequency,Hit,StdDev 
1568890815.0,286046999.4,N
1568890815.9,286046999.4,N
1568890835.8,286046997.9,N
1568890855.6,286046995.8,N
1568890875.4,286046995.7,N
1568890895.3,286046999.6,N
1568890915.1,286046995.4,N
1568890916.0,286046995.4,N
1568890935.8,286046997.8,N
1568890955.7,286046995.2,N
1568890975.5,286046994.5,N
1568890995.3,286046997.8,N
1568891015.2,286047000.8,N
1568891035.0,286046998.5,N
1568891035.9,286046998.5,N
1568891055.8,286047001.9,N
1568891075.6,286047001.8,N
1568891095.4,286047002.6,N
1568891115.3,286047000.8,N
1568891135.1,286046998.2,N
1568891155.9,286046998.7,N
1568891175.7,286046996.5,N
1568891195.5,286046997.2,N
1568891215.4,286046993.7,N
1568891235.2,286046997.1,N
1568891255.0,286047002.3,N
1568891255.9,286047002.3,N
1568891275.8,286047002.8,N
1568891295.6,286046999.2,N
1568891315.5,286046994.9,N
1568891335.3,286046995.3,N
1568891355.1,286046999.4,N
1568891375.9,286046999.3,N
1568891395.7,286047002.5,N
1568891415.5,286047000.3,N
1568891435.4,286047005.9,N
1568891455.2,286047002.6,N
1568891475.0,286047004.4,N
1568891476.0,286047004.4,N
1568891495.8,286047001.8,N
1568891515.6,286047003.3,N
1568891535.5,286047001.5,N
1568891555.3,286047005.6,N
1568891575.1,286047006.0,N
1568891595.9,286047005.3,N
1568891615.7,286047006.4,N
1568891635.5,286047007.1,N
1568891655.4,286047007.6,N
1568891675.2,286047004.4,N
1568891695.1,286047003.5,N
1568891696.0,286047003.5,N
1568891715.8,286047001.4,N
1568891735.6,286046999.9,N
1568891755.5,286046998.6,N
1568891775.3,286047000.8,N
1568891795.2,286047001.2,N
1568891815.9,286046997.2,N
1568891835.7,286046997.1,N
1568891855.6,286046994.9,N
1568891875.4,286046996.6,N
1568891895.2,286046995.7,N
1568891915.1,286046994.6,N
1568891916.0,286046994.6,N
1568891935.8,286046994.5,N
1568891955.7,286046994.1,N
1568891975.5,286046993.7,N
1568891995.3,286046997.7,N
1568892015.2,286047000.3,N
1568892035.0,286047000.1,N
1568892035.9,286047000.1,N
1568892055.7,286046999.7,N
1568892075.6,286047000.4,N
1568892095.4,286046996.6,N
1568892115.3,286046997.3,N
1568892135.1,286046997.9,N
1568892136.0,286046997.9,N
1568892155.8,286046998.4,N
1568892175.7,286047001.3,N
1568892195.5,286046999.8,N
1568892215.3,286046998.1,N
1568892235.2,286047000.0,N
1568892255.0,286046999.0,N
1568892255.9,286046999.0,N
1568892275.8,286047000.9,N
1568892295.6,286047002.2,N
1568892315.4,286047001.1,N
1568892335.3,286046999.3,N
1568892355.1,286046996.6,N
1568892375.8,286046996.9,N
1568892395.7,286046993.4,N
1568892415.5,286046991.9,Y
1568892435.4,286046996.2,P
1568892455.2,286046993.9,P
1568892475.0,286046993.6,P
1568892475.9,286046993.6,Y
1568892495.8,286046999.5,P
1568892515.6,286046996.9,N
1568892535.4,286047001.0,N
1568892555.3,286047000.9,N
1568892575.1,286047000.0,N
1568892595.9,286047000.4,N
1568892615.7,286046998.9,N
1568892635.5,286046996.9,N
1568892655.4,286046996.8,N
1568892675.2,286046997.5,N
1568892695.1,286046995.0,N
1568892696.0,286046995.0,N
1568892715.8,286046999.3,N
1568892735.6,286046997.6,N
1568892755.5,286046996.9,N
1568892775.3,286046995.0,N
1568892795.1,286046996.8,N
1568892815.9,286046999.1,N
1568892835.7,286046999.1,N
1568892855.6,286046999.4,N
1568892875.4,286046999.6,N
1568892895.2,286047000.7,N
1568892915.1,286046998.5,N
1568892916.0,286046998.5,N
1568892935.8,286046998.3,N
1568892955.6,286046996.5,N
1568892975.5,286046999.5,N
1568892995.3,286046997.0,N
1568893015.2,286046997.4,N
1568893035.9,286046997.2,N
1568893055.7,286046997.4,N
1568893075.6,286046997.7,N
1568893095.4,286046999.2,N
1568893115.2,286046995.4,N
1568893135.1,286046997.4,N
1568893136.0,286046997.4,N
1568893155.8,286046997.5,N
1568893175.7,286046999.3,N
1568893195.5,286046999.1,N
1568893215.3,286046998.4,N
1568893235.2,286047000.9,N
1568893255.0,286047000.9,N
1568893255.9,286047000.9,N
1568893275.7,286047000.4,N
1568893295.6,286047000.7,N
1568893315.4,286047000.9,N
1568893335.3,286047003.6,N
1568893355.1,286047002.0,N
1568893356.0,286047002.0,N
1568893375.8,286047000.3,N
1568893395.7,286046998.3,N
1568893415.5,286046997.2,N
1568893435.3,286046998.1,N
1568893455.2,286046998.7,N
1568893475.0,286047001.2,N
1568893475.9,286047001.2,N
1568893495.8,286046996.9,N
1568893515.6,286046996.7,N
1568893535.4,286047000.2,N
1568893555.3,286047001.6,N
1568893575.1,286047000.4,N
1568893595.8,286047001.2,N
1568893615.7,286047000.4,N
1568893635.5,286046998.3,N
1568893655.4,286046996.8,N
1568893675.2,286046995.6,N
1568893695.0,286046993.8,Y
1568893695.9,286046993.8,P
1568893715.8,286046997.6,N
1568893735.6,286046997.3,N
1568893755.4,286046996.2,N
1568893775.3,286046996.2,N
1568893795.1,286046996.0,N
1568893815.9,286046994.8,Y
1568893835.7,286047001.2,P
1568893855.5,286047001.0,N
1568893875.4,286046995.5,N
1568893895.2,286046997.6,N
1568893915.0,286046997.3,N
1568893916.0,286046997.3,N
1568893935.8,286046993.6,Y
1568893955.6,286046996.7,P
1568893975.5,286046996.4,P
1568893995.3,286046997.8,P
1568894015.1,286046999.0,N
1568894035.9,286046997.9,N
1568894055.7,286047000.4,N
1568894075.6,286046998.7,N
1568894095.4,286046995.3,Y
1568894115.2,286046994.9,P
1568894135.1,286046997.5,N
1568894136.0,286046997.5,N
1568894155.8,286047003.2,N
1568894175.6,286047004.3,N
1568894195.5,286047002.2,N
1568894215.3,286047002.6,N
1568894235.2,286047002.3,N
1568894255.9,286047001.4,N
1568894275.7,286047002.8,N
1568894295.6,286047000.8,N
1568894315.4,286047004.1,N
1568894335.2,286047000.0,N
1568894355.1,286047000.4,N
1568894356.0,286047000.4,N
1568894375.8,286046995.7,N
1568894395.7,286046997.1,N
